Location: 3 Angels Observatory
(30.5437°N, 88.5068°W)
Time: 23:14:52
(UTC-05:00)

Amateur Radio Satellites - All Passes

Search period start: 30 April 2016 22:44
Search period end: 01 May 2016 22:44
Location: 3 Angels Observatory, 30.5437°N, 88.5068°W

Satellite Date Start Highest point End Downlink Frequencies (MHz)
Time Altitude Azimuth
HUMSAT D 30 Apr 22:51:18 22:55:28 54° 260° (W) 22:59:37 437.325/437.525
AO-85 30 Apr 22:51:48 22:56:26 71° 63° (ENE) 23:00:35 145.980
UNISAT 6 30 Apr 22:53:53 22:58:02 45° 99° (E) 23:02:05 437.425
CUBEBUG 1 30 Apr 22:55:37 22:58:24 17° 69° (ENE) 23:01:11 437.445
TIGRISAT 30 Apr 23:12:07 23:16:25 73° 101° (E) 23:20:39 435.000
VELOX 1 30 Apr 23:15:31 23:19:22 30° 72° (ENE) 23:23:15 145.980
JUGNU 30 Apr 23:17:11 23:21:26 20° 193° (SSW) 23:25:41 437.505
DX 1 30 Apr 23:20:30 23:24:19 31° 72° (ENE) 23:28:09 434.975-435.025
UKube-1 30 Apr 23:31:12 23:35:04 33° 72° (ENE) 23:38:57 .
ANTELSAT 30 Apr 23:36:11 23:40:22 51° 285° (WNW) 23:44:29 437.575/2403.000
AISAT 30 Apr 23:46:37 23:51:02 80° 76° (ENE) 23:55:29 437.250
GONETS M04 30 Apr 23:47:20 23:54:03 25° 84° (E) 00:00:43
ESTCUBE 1 30 Apr 23:55:59 00:00:24 58° 260° (W) 00:04:48 437.505/2401.250
QB50P2 30 Apr 23:58:46 00:02:52 48° 100° (E) 00:06:56 145.880/145.840
POLYITAN 1 01 May 00:00:53 00:05:00 49° 100° (E) 00:09:03 437.675
DUCHIFAT 1 01 May 00:01:41 00:05:43 43° 99° (E) 00:09:42 145.980
RS-15 01 May 00:03:41 00:13:10 30° 314° (NW) 00:23:09 29.354- 29.394
POPSAT HIP 1 01 May 00:04:05 00:08:14 52° 100° (E) 00:12:19 437.405
SPROUT 01 May 00:05:11 00:09:12 39° 74° (ENE) 00:13:13 437.525
QB50P1 01 May 00:07:31 00:11:42 59° 101° (E) 00:15:51 145.935-145.965
50 SAT 01 May 00:07:52 00:11:19 40° 261° (W) 00:14:47 437.505
SRMSAT 01 May 00:11:29 00:16:25 27° 187° (S) 00:21:21 437.500
CUBEBUG 1 01 May 00:30:30 00:34:22 31° 262° (W) 00:38:18 437.445
UNISAT 6 01 May 00:32:53 00:34:16 11° 293° (WNW) 00:35:40 437.425
PCSat 01 May 00:39:15 00:41:57 14° 52° (NE) 00:44:37 145.827
AIST 1 01 May 00:39:28 00:43:41 59° 93° (E) 00:47:56
NANOSAT C BR1 01 May 00:43:45 00:47:49 47° 285° (WNW) 00:51:50 145.865
TISAT 1 01 May 00:47:48 00:51:38 34° 73° (ENE) 00:55:30 437.305
JAS-2 01 May 00:48:56 00:55:09 25° 94° (E) 01:01:16 435.910
VELOX 1 01 May 00:52:52 00:55:48 17° 264° (W) 00:58:46 145.980
BUGSAT 1 01 May 00:53:01 00:57:14 90° 226° (SW) 01:01:21 437.445
DX 1 01 May 00:57:43 01:00:30 17° 265° (W) 01:03:17 434.975-435.025
UKube-1 01 May 01:08:39 01:11:08 15° 265° (W) 01:13:39 .
ITUPSAT 1 01 May 01:14:55 01:16:33 12° 66° (ENE) 01:18:10 437.325
Cosmos 2499 01 May 01:22:07 01:29:07 57° 92° (E) 01:35:59 435.465 / 435.565
SWISSCUBE 01 May 01:23:56 01:27:03 18° 68° (ENE) 01:30:08 437.505
QB50P2 01 May 01:37:23 01:38:10 10° 293° (WNW) 01:38:58 145.880/145.840
DUCHIFAT 1 01 May 01:39:37 01:40:58 11° 292° (WNW) 01:42:18 145.980
POLYITAN 1 01 May 01:39:46 01:40:18 10° 293° (WNW) 01:40:49 437.675
GONETS M04 01 May 01:41:32 01:50:10 57° 279° (W) 01:58:50
SPROUT 01 May 01:43:22 01:45:15 13° 266° (W) 01:47:08 437.525
Gurwin Techsat 1B 01 May 01:54:53 01:58:09 16° 94° (E) 02:01:25 435.225
BEESAT 01 May 01:56:00 02:00:19 36° 73° (ENE) 02:04:39 436.000
O/OREOS (USA 219) 01 May 02:00:50 02:05:17 60° 254° (WSW) 02:09:41 437.305
SRMSAT 01 May 02:01:26 02:05:03 16° 196° (SSW) 02:08:40 437.500
CUSAT 1 01 May 02:03:35 02:10:27 39° 78° (ENE) 02:17:51 437.405
Oscar 19 01 May 02:16:20 02:21:33 79° 103° (ESE) 02:26:44 437.125/150
PCSat 01 May 02:20:25 02:25:49 69° 248° (WSW) 02:31:10 145.827
TISAT 1 01 May 02:25:04 02:27:20 14° 266° (W) 02:29:36 437.305
DANDE 01 May 02:26:25 02:32:16 29° 78° (ENE) 02:39:00 436.750
JAS-2 01 May 02:32:42 02:40:17 56° 288° (WNW) 02:47:49 435.910
ITUPSAT 1 01 May 02:49:11 02:53:50 56° 259° (W) 02:58:31 437.325
KKS-1 01 May 02:59:34 03:02:43 19° 69° (ENE) 03:05:53 437.445
SWISSCUBE 01 May 03:00:08 03:04:30 36° 261° (W) 03:08:53 437.505
Cosmos 2499 01 May 03:17:56 03:22:32 18° 287° (WNW) 03:27:09 435.465 / 435.565
STARS 01 May 03:22:17 03:25:10 17° 69° (ENE) 03:28:03 437.465
ITAMSAT 1 01 May 03:30:10 03:35:19 64° 102° (ESE) 03:40:27 435.822/435.867
Gurwin Techsat 1B 01 May 03:33:11 03:38:14 46° 287° (WNW) 03:43:15 435.225
BEESAT 01 May 03:35:03 03:38:09 17° 265° (W) 03:41:15 436.000
BEESAT 3 01 May 03:42:54 03:45:34 17° 55° (NE) 03:48:15 437.485
CUSAT 1 01 May 03:45:43 03:52:25 37° 269° (W) 03:59:36 437.405
BEESAT 2 01 May 03:47:21 03:48:36 11° 52° (NE) 03:49:52 435.950
DANDE 01 May 04:08:30 04:15:02 47° 266° (W) 04:22:44 436.750
AO-7 01 May 04:18:13 04:26:22 55° 103° (ESE) 04:34:28 29.400- 29.500
MOZHAYETS 4 01 May 04:22:32 04:27:06 74° 258° (WSW) 04:31:40
HORYU 2 01 May 04:25:02 04:26:08 11° 94° (E) 04:27:14 437.375
CUBESAT XI-V 01 May 04:29:23 04:29:52 10° 66° (ENE) 04:30:21 437.345
KKS-1 01 May 04:35:09 04:39:02 29° 262° (W) 04:42:57 437.445
RS-15 01 May 04:47:19 04:52:55 14° 28° (NNE) 04:58:31 29.354- 29.394
STARS 01 May 04:57:16 05:01:14 32° 262° (W) 05:05:13 437.465
ITAMSAT 1 01 May 05:12:15 05:14:10 12° 295° (WNW) 05:16:06 435.822/435.867
BEESAT 3 01 May 05:19:53 05:23:16 27° 248° (WSW) 05:26:37 437.485
BEESAT 2 01 May 05:22:52 05:26:42 48° 246° (WSW) 05:30:30 435.950
NOAA 15 01 May 05:35:37 05:37:27 12° 93° (E) 05:39:17 137.62
HORYU 2 01 May 05:58:37 06:02:52 47° 286° (WNW) 06:07:04 437.375
CUBESAT XI-V 01 May 06:02:10 06:06:40 59° 260° (W) 06:11:13 437.345
AO-7 01 May 06:11:55 06:18:35 28° 298° (WNW) 06:25:17 29.400- 29.500
YUBILEINY 01 May 06:14:47 06:23:14 53° 80° (E) 06:31:41 435.215
NOAA 18 01 May 06:19:48 06:24:38 32° 99° (E) 06:29:26 137.9125
CUTE-I 01 May 06:24:02 06:28:25 26° 97° (E) 06:32:47 437.470
ISS 01 May 06:24:42 06:26:31 14° 126° (SE) 06:28:22 145.825
STRAND 1 01 May 06:32:57 06:36:51 23° 69° (ENE) 06:40:44 437.568
AIST 2 01 May 06:38:05 06:42:11 61° 61° (ENE) 06:46:16 435.215
GOMX 1 01 May 06:47:31 06:51:36 22° 94° (E) 06:55:33 467.674
Cosmos 2491 01 May 06:49:48 06:58:20 59° 91° (E) 07:06:57 435.465 / 435.565
DOVE 4 01 May 06:56:32 06:57:02 10° 90° (E) 06:57:32 437.250
RS-15 01 May 06:57:27 07:09:21 51° 56° (NE) 07:21:07 29.354- 29.394
LilacSat-2 01 May 06:59:40 07:03:26 62° 101° (E) 07:07:09 437.200
BRITE-PL 01 May 07:02:29 07:08:12 70° 101° (E) 07:13:43 437.365/2234.400
AUBIESAT-1 01 May 07:03:16 07:04:08 11° 97° (E) 07:04:59 437.475
Cubesat XI-IV 01 May 07:07:02 07:12:21 74° 102° (ESE) 07:17:40 437.490
Cosmos 2504 01 May 07:07:43 07:14:01 27° 77° (ENE) 07:20:38 435.465 / 435.565
NOAA 15 01 May 07:12:16 07:17:31 62° 286° (WNW) 07:22:45 137.62
SO-50 01 May 07:38:32 07:43:25 71° 299° (WNW) 07:48:20 436.795
CINEMA 3 01 May 07:52:49 07:54:19 11° 92° (E) 07:55:46 145.822/145.860
ISS 01 May 07:59:45 08:02:44 33° 319° (NW) 08:05:44 145.825
NOAA 18 01 May 08:00:41 08:05:04 26° 292° (WNW) 08:09:28 137.9125
CUTE-I 01 May 08:03:49 08:08:22 30° 290° (WNW) 08:12:55 437.470
STRAND 1 01 May 08:11:15 08:15:47 32° 262° (W) 08:20:19 437.568
YUBILEINY 01 May 08:12:41 08:19:25 26° 276° (W) 08:26:11 435.215
M-CUBED/EXP-1 PRIME 01 May 08:14:48 08:18:34 49° 290° (WNW) 08:22:01 437.505
PRISM 01 May 08:17:15 08:21:12 55° 75° (ENE) 08:25:12 437.425
CANX-2 01 May 08:20:15 08:23:54 28° 97° (E) 08:27:34 2200.000
GOMX 1 01 May 08:24:47 08:29:41 36° 288° (WNW) 08:34:22 467.674
DOVE 4 01 May 08:30:06 08:35:09 63° 284° (WNW) 08:39:53 437.250
AAUSAT CUBESAT 2 01 May 08:30:07 08:31:32 11° 94° (E) 08:32:57 437.432
AUBIESAT-1 01 May 08:35:23 08:38:49 32° 292° (WNW) 08:42:01 437.475
HO-68 01 May 08:40:45 08:47:41 52° 101° (ESE) 08:54:37 435.675
BRITE-PL 01 May 08:43:23 08:45:56 13° 295° (WNW) 08:48:27 437.365/2234.400
Cosmos 2491 01 May 08:48:47 08:55:32 24° 287° (WNW) 09:02:23 435.465 / 435.565
Cubesat XI-IV 01 May 08:50:30 08:51:44 11° 296° (WNW) 08:52:59 437.490
CUBEBUG 2 01 May 08:51:21 08:54:01 16° 94° (E) 08:56:37 437.445
CUTE 1.7 + AOD 2 01 May 08:52:57 08:57:09 66° 101° (E) 09:01:20 437.475
Cosmos 2504 01 May 09:00:10 09:07:25 47° 269° (W) 09:15:12 435.465 / 435.565
RS-15 01 May 09:10:21 09:21:31 43° 254° (WSW) 09:32:34 29.354- 29.394
ZACube-1 01 May 09:22:38 09:25:19 16° 95° (E) 09:27:57 437.345
SEEDS 01 May 09:23:37 09:27:46 70° 283° (WNW) 09:31:56 437.485
CINEMA 3 01 May 09:27:18 09:31:42 45° 286° (WNW) 09:35:53 145.822/145.860
COMPASS 1 01 May 09:30:22 09:34:31 83° 281° (WNW) 09:38:41 437.405
UNISAT 6 01 May 09:47:29 09:51:05 22° 71° (ENE) 09:54:38 437.425
CANX-2 01 May 09:56:45 09:59:30 17° 290° (WNW) 10:02:15 2200.000
DELFI C3 01 May 09:56:55 10:00:08 23° 97° (E) 10:03:21 145.870
PHONESAT 2.4 01 May 09:58:16 10:01:23 64° 148° (SSE) 10:04:30 2401.200-2431.200
AAUSAT CUBESAT 2 01 May 10:03:16 10:07:07 39° 286° (WNW) 10:10:59 437.432
TIGRISAT 01 May 10:04:59 10:09:10 33° 73° (ENE) 10:13:18 435.000
Oscar 11 01 May 10:07:05 10:11:23 78° 101° (E) 10:15:41 145.826/435.025
FUNcube-1 01 May 10:16:11 10:20:23 80° 103° (ESE) 10:24:29 145.935
UWE-3 01 May 10:22:52 10:26:57 48° 285° (WNW) 10:30:57 435.000/436.395/437.385
CUBEBUG 2 01 May 10:26:56 10:30:39 29° 288° (WNW) 10:34:16 437.445
ANTELSAT 01 May 10:28:34 10:33:13 68° 76° (ENE) 10:37:49 437.575/2403.000
HO-68 01 May 10:29:27 10:34:56 24° 296° (WNW) 10:40:25 435.675
HUMSAT D 01 May 10:40:34 10:44:16 33° 98° (E) 10:47:57 437.325/437.525
QB50P2 01 May 10:46:48 10:49:43 18° 70° (ENE) 10:52:40 145.880/145.840
POLYITAN 1 01 May 10:48:52 10:51:51 19° 70° (ENE) 10:54:51 437.675
DUCHIFAT 1 01 May 10:49:13 10:51:53 16° 70° (ENE) 10:54:33 145.980
POPSAT HIP 1 01 May 10:51:51 10:54:56 20° 70° (ENE) 10:58:00 437.405
QB50P1 01 May 10:55:03 10:58:19 22° 71° (ENE) 11:01:35 145.935-145.965
ZACube-1 01 May 10:58:01 11:01:35 27° 288° (WNW) 11:05:05 437.345
Cosmos 2499 01 May 11:21:15 11:24:53 14° 71° (ENE) 11:28:36 435.465 / 435.565
UNISAT 6 01 May 11:23:37 11:27:35 27° 263° (W) 11:31:32 437.425
NANOSAT C BR1 01 May 11:29:50 11:34:00 56° 76° (ENE) 11:38:12 145.865
DELFI C3 01 May 11:32:03 11:34:48 18° 289° (WNW) 11:37:34 145.870
PHONESAT 2.4 01 May 11:35:52 11:38:26 22° 343° (NNW) 11:41:00 2401.200-2431.200
BUGSAT 1 01 May 11:37:20 11:40:57 28° 72° (ENE) 11:44:36 437.445
TIGRISAT 01 May 11:42:39 11:45:49 18° 265° (W) 11:48:59 435.000
AISAT 01 May 11:43:07 11:46:42 23° 97° (E) 11:50:15 437.250
50 SAT 01 May 11:43:28 11:46:27 23° 97° (E) 11:49:26 437.505
ESTCUBE 1 01 May 11:54:02 11:58:23 44° 100° (E) 12:02:42 437.505/2401.250
GONETS M04 01 May 11:58:47 12:07:23 57° 81° (E) 12:15:52
SPROUT 01 May 11:59:42 12:00:24 10° 93° (E) 12:01:05 437.525
HUMSAT D 01 May 12:17:34 12:19:34 13° 291° (WNW) 12:21:33 437.325/437.525
QB50P2 01 May 12:21:37 12:25:17 28° 262° (W) 12:28:59 145.880/145.840
DUCHIFAT 1 01 May 12:23:31 12:27:17 31° 262° (W) 12:31:05 145.980
POLYITAN 1 01 May 12:23:45 12:27:25 27° 262° (W) 12:31:06 437.675
CUBEBUG 1 01 May 12:24:04 12:28:30 72° 101° (E) 12:32:54 437.445
POPSAT HIP 1 01 May 12:26:55 12:30:29 26° 263° (W) 12:34:06 437.405
AIST 1 01 May 12:29:33 12:33:52 56° 266° (W) 12:38:09
QB50P1 01 May 12:30:31 12:33:55 23° 263° (W) 12:37:21 145.935-145.965
JAS-2 01 May 12:39:17 12:44:27 36° 69° (ENE) 12:50:12 435.910
VELOX 1 01 May 12:46:54 12:51:18 59° 285° (WNW) 12:55:39 145.980
DX 1 01 May 12:49:40 12:54:00 61° 285° (WNW) 12:58:18 434.975-435.025
AO-85 01 May 12:58:58 13:04:23 90° 155° (SSE) 13:09:52 145.980
UKube-1 01 May 12:59:17 13:03:33 58° 285° (WNW) 13:07:47 .
Cosmos 2499 01 May 13:10:45 13:18:37 87° 265° (W) 13:27:06 435.465 / 435.565
Gurwin Techsat 1B 01 May 13:11:02 13:14:09 16° 67° (ENE) 13:17:16 435.225
BUGSAT 1 01 May 13:13:33 13:16:18 17° 265° (W) 13:19:04 437.445
PHONESAT 2.4 01 May 13:14:22 13:16:01 13° 360° (N) 13:17:40 2401.200-2431.200
50 SAT 01 May 13:17:54 13:20:00 15° 289° (WNW) 13:22:07 437.505
AISAT 01 May 13:19:29 13:23:02 23° 289° (WNW) 13:26:33 437.250
Oscar 19 01 May 13:27:26 13:32:31 64° 75° (ENE) 13:37:39 437.125/150
SPROUT 01 May 13:32:25 13:36:31 46° 285° (WNW) 13:40:36 437.525
ESTCUBE 1 01 May 13:32:39 13:34:45 13° 292° (WNW) 13:36:51 437.505/2401.250
GONETS M04 01 May 13:57:01 14:03:28 24° 276° (W) 14:09:55
BEESAT 01 May 14:03:04 14:05:38 14° 95° (E) 14:08:12 436.000
TISAT 1 01 May 14:12:26 14:16:35 57° 284° (WNW) 14:20:41 437.305
JAS-2 01 May 14:24:59 14:29:35 25° 266° (W) 14:34:38 435.910
O/OREOS (USA 219) 01 May 14:28:32 14:32:32 30° 103° (ESE) 14:36:32 437.305
ISS 01 May 14:32:16 14:34:30 17° 37° (NE) 14:36:44 145.825
ITAMSAT 1 01 May 14:42:32 14:47:34 55° 74° (ENE) 14:52:37 435.822/435.867
AO-85 01 May 14:43:31 14:45:33 12° 312° (NW) 14:47:36 145.980
Gurwin Techsat 1B 01 May 14:48:29 14:53:37 50° 260° (W) 14:58:47 435.225
PHONESAT 2.4 01 May 14:51:07 14:53:37 21° 16° (NNE) 14:56:09 2401.200-2431.200
ITUPSAT 1 01 May 14:55:09 14:59:52 58° 101° (E) 15:04:33 437.325
CUSAT 1 01 May 15:03:53 15:06:27 25° 89° (E) 15:09:33 437.405
SWISSCUBE 01 May 15:05:24 15:10:11 89° 107° (ESE) 15:14:57 437.505
Cosmos 2499 01 May 15:08:24 15:10:44 11° 278° (W) 15:13:06 435.465 / 435.565
Oscar 19 01 May 15:11:02 15:12:09 11° 267° (W) 15:13:18 437.125/150
AO-7 01 May 15:11:06 15:18:51 46° 67° (ENE) 15:26:36 29.400- 29.500
PCSat 01 May 15:13:33 15:18:24 35° 108° (ESE) 15:23:17 145.827
DANDE 01 May 15:33:42 15:35:24 15° 89° (E) 15:37:14 436.750
BEESAT 01 May 15:39:03 15:43:32 42° 287° (WNW) 15:48:00 436.000
ISS 01 May 16:08:03 16:11:01 32° 230° (SW) 16:13:58 145.825
O/OREOS (USA 219) 01 May 16:08:36 16:11:54 19° 296° (WNW) 16:15:13 437.305
SO-50 01 May 16:16:18 16:20:01 23° 54° (NE) 16:23:39 436.795
MOZHAYETS 4 01 May 16:23:17 16:27:34 39° 99° (E) 16:31:49
ITAMSAT 1 01 May 16:24:58 16:27:16 13° 266° (W) 16:29:35 435.822/435.867
PHONESAT 2.4 01 May 16:27:34 16:30:43 74° 210° (SSW) 16:33:52 2401.200-2431.200
KKS-1 01 May 16:30:58 16:35:27 83° 103° (ESE) 16:39:53 437.445
ITUPSAT 1 01 May 16:35:44 16:37:08 11° 294° (WNW) 16:38:32 437.325
HORYU 2 01 May 16:50:32 16:55:00 76° 77° (ENE) 16:59:29 437.375
NOAA 15 01 May 16:51:01 16:52:41 11° 64° (ENE) 16:54:22 137.62
STARS 01 May 16:51:43 16:56:07 70° 102° (ESE) 17:00:28 437.465
PCSat 01 May 16:57:25 17:01:48 25° 303° (WNW) 17:06:12 145.827
AO-7 01 May 17:04:30 17:11:37 32° 261° (W) 17:18:48 29.400- 29.500
Cosmos 2491 01 May 17:08:43 17:15:01 21° 72° (ENE) 17:21:13 435.465 / 435.565
BEESAT 3 01 May 17:30:29 17:31:23 11° 108° (ESE) 17:32:16 437.485
JUGNU 01 May 17:36:57 17:40:49 18° 165° (SSE) 17:44:43 437.505
LilacSat-2 01 May 17:37:40 17:39:47 14° 70° (ENE) 17:41:53 437.200
NOAA 18 01 May 17:40:30 17:45:30 36° 71° (ENE) 17:50:30 137.9125
CUTE-I 01 May 17:40:38 17:44:54 25° 69° (ENE) 17:49:11 437.470
GOMX 1 01 May 17:51:30 17:53:32 12° 65° (ENE) 17:55:36 467.674
SO-50 01 May 17:56:29 18:00:26 28° 249° (WSW) 18:04:17 436.795
MOZHAYETS 4 01 May 18:01:47 18:04:22 15° 291° (WNW) 18:06:56
CUBESAT XI-V 01 May 18:04:11 18:08:46 53° 100° (E) 18:13:21 437.345
BRITE-PL 01 May 18:07:49 18:12:07 40° 73° (ENE) 18:16:47 437.365/2234.400
Cubesat XI-IV 01 May 18:23:21 18:28:39 69° 75° (ENE) 18:33:57 437.490
NOAA 15 01 May 18:26:35 18:31:48 69° 258° (WSW) 18:37:04 137.62
SRMSAT 01 May 18:36:14 18:37:31 11° 160° (SSE) 18:38:47 437.500
STRAND 1 01 May 18:50:47 18:52:23 11° 93° (E) 18:53:57 437.568
M-CUBED/EXP-1 PRIME 01 May 18:54:25 18:59:06 75° 72° (ENE) 19:03:49 437.505
Cosmos 2491 01 May 19:03:42 19:12:23 66° 268° (W) 19:21:00 435.465 / 435.565
HO-68 01 May 19:04:50 19:10:00 22° 63° (ENE) 19:15:09 435.675
BEESAT 3 01 May 19:04:55 19:08:38 41° 300° (WNW) 19:12:24 437.485
YUBILEINY 01 May 19:08:05 19:16:47 73° 93° (E) 19:25:27 435.215
BEESAT 2 01 May 19:09:18 19:13:14 70° 297° (WNW) 19:17:13 435.950
LilacSat-2 01 May 19:10:25 19:13:48 28° 263° (W) 19:17:11 437.200
CANX-2 01 May 19:10:25 19:11:11 10° 68° (ENE) 19:11:56 2200.000
AUBIESAT-1 01 May 19:14:24 19:19:02 79° 254° (WSW) 19:23:41 437.475
CUTE-I 01 May 19:20:05 19:24:45 31° 262° (W) 19:29:25 437.470
NOAA 18 01 May 19:21:54 19:26:08 23° 263° (W) 19:30:25 137.9125
JUGNU 01 May 19:24:21 19:29:18 28° 175° (S) 19:34:17 437.505
GOMX 1 01 May 19:26:09 19:30:54 59° 260° (W) 19:36:01 467.674
DOVE 4 01 May 19:28:47 19:33:42 70° 76° (ENE) 19:38:54 437.250
CUTE 1.7 + AOD 2 01 May 19:40:44 19:44:01 22° 72° (ENE) 19:47:19 437.475
Cosmos 2504 01 May 19:40:50 19:46:25 24° 86° (E) 19:51:52 435.465 / 435.565
CUBESAT XI-V 01 May 19:43:54 19:45:38 12° 293° (WNW) 19:47:23 437.345
BRITE-PL 01 May 19:48:06 19:50:48 15° 268° (W) 19:53:40 437.365/2234.400
PRISM 01 May 20:06:22 20:08:00 12° 94° (E) 20:09:38 437.425
Cubesat XI-IV 01 May 20:08:24 20:09:04 10° 267° (W) 20:09:44 437.490
SEEDS 01 May 20:09:48 20:13:37 36° 74° (ENE) 20:17:27 437.485
COMPASS 1 01 May 20:15:51 20:19:27 29° 73° (ENE) 20:23:02 437.405
SRMSAT 01 May 20:21:36 20:26:07 22° 168° (SSE) 20:30:37 437.500
CINEMA 3 01 May 20:21:52 20:26:50 81° 77° (ENE) 20:31:53 145.822/145.860
STRAND 1 01 May 20:26:47 20:31:49 60° 286° (WNW) 20:36:50 437.568
AIST 2 01 May 20:30:10 20:34:09 50° 114° (ESE) 20:38:09 435.215
CANX-2 01 May 20:42:29 20:46:34 47° 261° (W) 20:50:39 2200.000
AAUSAT CUBESAT 2 01 May 20:47:27 20:51:30 60° 76° (ENE) 20:55:33 437.432
HO-68 01 May 20:50:07 20:57:08 58° 258° (WSW) 21:04:11 435.675
Oscar 11 01 May 20:56:34 21:00:15 28° 73° (ENE) 21:03:57 145.826/435.025
FUNcube-1 01 May 21:05:59 21:09:58 31° 73° (ENE) 21:13:56 145.935
YUBILEINY 01 May 21:08:38 21:14:14 18° 289° (WNW) 21:19:52 435.215
JUGNU 01 May 21:12:51 21:17:50 28° 185° (S) 21:22:52 437.505
UWE-3 01 May 21:13:17 21:17:54 64° 76° (ENE) 21:22:28 435.000/436.395/437.385
RS-15 01 May 21:13:20 21:23:57 54° 109° (ESE) 21:35:06 29.354- 29.394
CUTE 1.7 + AOD 2 01 May 21:16:30 21:19:44 21° 264° (W) 21:22:57 437.475
CUBEBUG 2 01 May 21:17:56 21:22:41 76° 259° (WSW) 21:27:25 437.445
HUMSAT D 01 May 21:28:14 21:30:01 12° 69° (ENE) 21:31:48 437.325/437.525
Cosmos 2504 01 May 21:32:21 21:39:21 45° 280° (W) 21:46:09 435.465 / 435.565
AO-85 01 May 21:38:14 21:41:20 17° 51° (NE) 21:44:16 145.980
PRISM 01 May 21:39:32 21:43:24 38° 286° (WNW) 21:47:17 437.425
ZACube-1 01 May 21:46:54 21:51:28 77° 259° (W) 21:55:59 437.345
SEEDS 01 May 21:47:34 21:49:24 13° 266° (W) 21:51:14 437.485
COMPASS 1 01 May 21:52:33 21:55:00 15° 265° (W) 21:57:27 437.405
SRMSAT 01 May 22:09:40 22:14:47 29° 178° (S) 22:19:54 437.500
DELFI C3 01 May 22:11:13 22:15:08 69° 259° (W) 22:19:04 145.870
AIST 2 01 May 22:11:22 22:12:53 12° 308° (NW) 22:14:25 435.215
ANTELSAT 01 May 22:27:02 22:30:14 20° 96° (E) 22:33:23 437.575/2403.000
Oscar 11 01 May 22:33:26 22:36:20 18° 265° (W) 22:39:15 145.826/435.025
AISAT 01 May 22:37:28 22:38:37 11° 67° (ENE) 22:39:47 437.250
